www.pogodaiklimat.ru

Погода и климат >> Архив погоды >> Алжир >> Mostaganem Ville


ПОГОДА в Mostaganem Ville

  • Прогноз погоды в Mostaganem Ville
  • Монитор погоды в Mostaganem Ville
  • Климат города

АРХИВ ПОГОДЫ в Mostaganem Ville

Время (UTC), дата Ветер
(напр.,м/с)
 
Видим.   Явления Облачность Т
(С)
Тd
(С)
f
(%)
Тe
(С)
Тes
(С)
Комфортность P
(гПа)
Po
(гПа)
Тmin
(С)
Tmax
(С)
R
(мм)
R24
(мм)
S
(см)
18 18.05 СВ 3 10 км 5/3 600 м
[Cu med, cong Ci sp]
+18.8 +13.2 70 +20 +20 1013.7 1014.0 +21.7
06 19.05 штиль 0 6000 м 5/3 600 м
[Cu med, cong Ci sp]
+11.5 +11.1 97 +11 +12 1015.1 1015.0 +10.7
09 19.05 В 2 8000 м 5/4 600 м
[Cu med, cong Ci sp]
+18.7 +13.7 73 +20 +27 1015.5 1016.0
12 19.05 С 3 8000 м 8/8 600 м
[Cu Sc]
+20.0 +15.5 75 +23 +26 комфорт 1015.0 1015.0
15 19.05 С 3 10 км 8/8 600 м
[Cu Sc]
+19.6 +14.1 71 +22 +24 комфорт 1014.4 1014.0
18 19.05 СВ 3 10 км 8/1 600 м
[Cu med, cong Ac cast Ci sp]
+19.1 +14.3 74 +21 +21 комфорт 1013.6 1014.0 +20.3
06 20.05 СЗ 2 6000 м 9/9 600 м
[Cu Sc]
+16.1 +14.5 90 +16 +16 1014.3 1014.0 +14.8
09 20.05 СЗ 2 8000 м 9/9 600 м
[Cu Sc]
+17.1 +15.1 88 +17 +19 1014.8 1015.0
12 20.05 СЗ 4 8000 м 8/8 600 м
[Cu Sc]
+19.1 +14.8 76 +20 +23 1014.2 1014.0
15 20.05 С 3 10 км 5/5 600 м
[Cu Sc Ac cast]
+20.4 +14.3 68 +23 +29 комфорт 1012.3 1012.0
18 20.05 СЗ 3 10 км 3/1 600 м
[Cu med, cong Ci sp]
+19.6 +14.5 72 +22 +22 комфорт 1011.6 1012.0 +21.3
06 21.05 штиль 0 8000 м 9/9 480 м
[St]
+12.3 +11.9 97 +12 +12 1012.9 1013.0 +10.5
09 21.05 С 2 10 км 5/4 600 м
[Cu hum Ci fib]
+19.0 +14.5 75 +21 +29 комфорт 1013.0 1013.0
12 21.05 З 4 10 км 4/4 600 м
[Cu hum Ci fib]
+19.8 +14.6 72 +22 +31 комфорт 1012.3 1012.0
15 21.05 СЗ 4 10 км 1/1 600 м
[Cu med, cong Ci sp]
+20.2 +14.6 70 +23 +30 комфорт 1011.3 1011.0
18 21.05 С 2 12 км 1/1 600 м
[Cu med, cong Ci sp]
+20.6 +12.8 61 +23 +24 комфорт 1011.4 1011.0 +20.8
06 22.05 штиль 0 800 м туман ясно +13.3 +12.9 97 +13 +14 1014.9 1015.0 +10.9
09 22.05 Ю 2 10 км {туман} ясно +21.2 +12.9 59 +23 +37 комфорт 1015.1 1015.0
12 22.05 СЗ 3 12 км {туман} ясно +23.5 +9.5 41 +24 +43 комфорт 1015.0 1015.0
15 22.05 СВ 3 15 км ясно +24.8 +9.5 38 +26 +37 жарко 1014.2 1014.0
18 22.05 СВ 2 15 км ясно +24.6 +10.1 40 +26 +27 жарко 1013.8 1014.0 +25.0
06 23.05 СВ 4 10 км 4/0
[Ci fib]
+17.7 +12.2 70 +18 +18 1014.5 1015.0 +15.2
09 23.05 СВ 3 10 км 3/0
[Ci fib]
+25.7 +12.1 43 +27 +37 жарко 1014.8 1015.0
12 23.05 СВ 4 10 км 1/1 600 м
[Cu med, cong Ci fib]
+31.2 +11.6 30 +32 +44 жарко 1013.3 1013.0
15 23.05 СВ 4 10 км 3/1 600 м
[Cu med, cong Ac cast Ci fib]
+33.4 +12.9 29 +34 +41 очень
жарко
1011.2 1011.0
18 23.05 СВ 3 12 км 5/1 600 м
[Cu med, cong Ci sp]
+30.5 +11.8 32 +31 +32 жарко 1010.4 1010.0 +33.7
06 24.05 СВ 2 8000 м 8/0
[Ac cast]
+22.6 +13.8 58 +26 +26 жарко 1010.5 1011.0 +22.6
09 24.05 В 2 10 км 4/0
[Ac cast]
+31.8 +11.4 29 +32 +41 жарко 1010.1 1010.0
12 24.05 СЗ 4 10 км 5/4 800 м
[Sc Ci sp]
+34.3 +13.4 28 +35 +44 очень
жарко
1007.9 1008.0
15 24.05 ЮЗ 2 8000 м 9/9 600 м
[Cu med, cong]
+28.8 +17.3 50 +33 +34 очень
душно
1006.2 1006.0
18 24.05 СЗ 4 8000 м 9/9 600 м
[Cu med, cong]
+19.7 +17.4 87 +22 +22 комфорт 1007.9 1008.0 +36.6
06 25.05 ЮЗ 4 12 км ясно +18.1 +13.8 76 +18 +19 1013.0 1013.0 +17.7
09 25.05 ЮЗ 4 12 км 6/0
[Ci fib]
+22.0 +12.6 55 +25 +32 комфорт 1013.6 1014.0
12 25.05 СЗ 5 15 км 5/0
[Ci fib]
+21.6 +13.8 61 +24 +34 комфорт 1013.4 1013.0

 

Местоположение метеостанции Mostaganem Ville (Алжир): широта 35.88 долгота 0.12 высота над уровнем моря 138 м.

В архиве по умолчанию представлена погода в Mostaganem Ville за последнюю неделю. Архивные данные за месяц целиком и за предыдущие месяцы, начиная с января 2011 года, Вы можете получить, выбрав интересующий диапазон дат из раскрывающегося списка и нажав кнопку "Ввод!".


*Определитесь, кто Вы:
робот инопланетянин человек

Внимание! Время в таблицах - всемирное. Для получения местного времени необходимо прибавить поправку, которая в Mostaganem Ville равна 1 ч.

Смотрите также архив погоды в соседних городах и на ближайших метеорологических станциях:

Погода в Arzew (Алжир) (36 км)
Погода в Relizane (Алжир) (42 км)
Погода в Oran (Es Senia) (Алжир) (71 км)
Погода в Oran-Port (Алжир) (72 км)
Погода в Oran Tafaraoui (Алжир) (73 км)
Погода в Mascara Ghriss (Алжир) (73 км)
Погода в Sidi Bel Abbes (Алжир) (101 км)
Погода в Saida (Алжир) (112 км)
Погода в Chlef (Алжир) (115 км)
Погода в Tenes (Алжир) (129 км)

Пояснения к столбцам:

Ветер - указаны скорость ветра в м/с - средняя за 10 мин, порывы в срок и между сроками (в фигурных скобках) и направление, откуда дует ветер: С - северный, СВ - северо-восточный, В - восточный, ЮВ - юго-восточный, Ю - южный, ЮЗ - юго-западный, З - западный, СЗ - северо-западный.
Видимость - горизонтальная дальность видимости в метрах или километрах. При видимости от 1 до 10 км при отсутствии осадков обычно наблюдается дымка, при ухудшении видимости до 1 км и менее - туман. В сухую погоду видимость может ухудшаться дымом, пылью или мглою.
Явления - указаны атмосферные явления, наблюдавшиеся в срок или в последний час перед сроком; фигурными скобками обозначены явления, наблюдавшиеся между сроками (за 1-3 часа до срока); квадратными скобками обозначены град или гололедные отложения с указанием их диаметра в мм.
Облачность - указаны через наклонную черту общая и нижняя облачность в баллах и высота нижней границы облаков в метрах; квадратными скобками обозначены формы облаков: Ci - перистые, Cs - перисто-слоистые, Cc - перисто-кучевые, Ac - высококучевые, As - высокослоистые, Sc - слоисто-кучевые, Ns - слоисто-дождевые, Cu - кучевые, Cb - кучево-дождевые. Подробнее классификацию облаков см. в Атласе облаков (PDF).
T - Температура воздуха - температура, измеренная на высоте 2 м над землей.
Td - Температура точки росы - температура, при понижении до которой содержащийся в воздухе водяной пар достигнет насыщения.
f - Относительная влажность воздуха - влажноcть воздуха, измеренная на высоте 2 м над землей.
Te - Эффективная температура - температура, которую ощущает одетый по сезону человек в тени. Характеристика душности погоды. При расчете учитывается влияние влажности воздуха и скорости ветра на теплоощущения человека.
Tes - Эффективная температура на солнце - температура, которую ощущает человек, с поправкой на солнечный нагрев. Характеристика знойности погоды. Зависит от высоты солнца над горизонтом, облачности и скорости ветра. Ночью, в пасмурную погоду, а также при ветре 12 м/с и более поправка равна нулю.
P - Атмосферное давление - приведенное к уровню моря атмосферное давление.
Po - Атмосферное давление - измеренное на уровне метеостанции атмосферное давление.
Tmin - Минимальная температура - минимум температуры воздуха на высоте 2 м над землей.
Tmax - Максимальная температура - максимум температуры воздуха на высоте 2 м над землей.
R - Количество осадков - Количество выпавших осадков за период времени, мм. При наведении курсора мыши на число - период времени, за который выпало указанное количество осадков.
R24 - Количество осадков - Количество выпавших осадков за 24 часа, мм.
S - Снежный покров - Высота снежного покрова, см. При наведении курсора мыши на число - состояние снежного покрова и степень покрытия местности в баллах.